contact:dominique.lefevre@mio.osupytheas.fr, maurice.libes@osupytheas.fr, didier.mallarino@osupytheas.fr
Project:EMSO http://www.emso-fr.org/EMSO-France
Depth: 2436.0 m
Title:EMSO Ligure Ouest : Data MII capteur AQUADOPP
Date,Latitude,Longitude,X_East,Y_North,Z_Up,Amplitude_X,Amplitude_Y,Amplitude_Z,Batterie,SoundSpeed,Heading,Pitch,Roll,Pressure,TIS,Speed,Direction
, degrees North, degrees East, m.s-1, m.s-1,m.s-1, 1, 1, 1, Volt, m.s-1, degree, degree, degree, dbar, degree_C, m.s-1, degree
2020-09-11T00:04:03,42.805,6.029,0.044,-0.021,0.017,102.0,105.0,101.0,13.4,1505.2,325.3,-0.7,1.8,2470.394,13.3,0.048,115.5
2020-09-11T00:07:02,42.805,6.029,0.031,-0.016,0.008,104.0,106.0,101.0,13.4,1505.3,326.7,-0.7,1.8,2470.397,13.31,0.034,117.3
2020-09-11T00:10:02,42.805,6.029,0.045,-0.037,0.006,102.0,107.0,102.0,13.4,1505.3,324.3,-0.7,1.8,2470.396,13.31,0.058,129.4
2020-09-11T00:13:02,42.805,6.029,0.043,-0.039,-0.012,104.0,106.0,101.0,13.4,1505.3,325.8,-0.7,1.8,2470.355,13.32,0.058,132.2
2020-09-11T00:16:02,42.805,6.029,0.025,-0.011,0.003,103.0,105.0,102.0,13.4,1505.3,324.5,-0.7,1.8,2470.337,13.32,0.027,113.7
2020-09-11T00:19:02,42.805,6.029,0.025,-0.023,-0.001,104.0,107.0,101.0,13.4,1505.3,326.6,-0.7,1.9,2470.385,13.32,0.033,132.6
2020-09-11T00:22:02,42.805,6.029,0.038,-0.025,0.004,104.0,105.0,102.0,13.3,1505.3,325.7,-0.7,1.8,2470.377,13.32,0.045,123.3
2020-09-11T00:25:02,42.805,6.029,0.027,-0.048,-0.042,103.0,105.0,101.0,13.4,1505.3,328.6,-0.7,1.9,2470.339,13.32,0.055,150.6
2020-09-11T00:28:02,42.805,6.029,0.047,-0.038,0.001,102.0,106.0,101.0,13.4,1505.3,323.5,-0.7,1.8,2470.395,13.32,0.06,129.0
2020-09-11T00:31:02,42.805,6.029,0.041,-0.025,-0.007,103.0,106.0,101.0,13.4,1505.3,326.3,-0.7,1.8,2470.345,13.32,0.048,121.4
2020-09-11T00:34:02,42.805,6.029,0.024,-0.023,-0.001,103.0,106.0,101.0,13.3,1505.3,324.9,-0.8,1.8,2470.329,13.32,0.033,133.8
2020-09-11T00:37:02,42.805,6.029,0.032,-0.012,0.034,104.0,104.0,101.0,13.4,1505.3,327.7,-0.7,1.8,2470.364,13.32,0.034,110.6
2020-09-11T00:40:02,42.805,6.029,0.044,-0.039,0.017,104.0,105.0,102.0,13.3,1505.3,325.2,-0.7,1.8,2470.388,13.32,0.058,131.6
2020-09-11T00:43:02,42.805,6.029,0.028,-0.02,0.011,105.0,106.0,101.0,13.3,1505.3,323.2,-0.7,1.8,2470.361,13.32,0.034,125.5
2020-09-11T00:46:02,42.805,6.029,0.016,-0.023,-0.018,105.0,105.0,100.0,13.3,1505.3,323.3,-0.7,1.8,2470.324,13.32,0.028,145.2
2020-09-11T00:49:02,42.805,6.029,0.042,-0.026,0.012,103.0,106.0,102.0,13.4,1505.3,327.1,-0.7,1.8,2470.31,13.32,0.049,121.8
2020-09-11T00:52:02,42.805,6.029,0.024,-0.024,-0.039,105.0,106.0,101.0,13.3,1505.3,326.8,-0.7,1.8,2470.311,13.32,0.033,135.0
2020-09-11T00:55:02,42.805,6.029,0.009,-0.041,-0.047,103.0,108.0,102.0,13.4,1505.3,326.0,-0.7,1.8,2470.412,13.32,0.041,167.6
2020-09-11T00:58:03,42.805,6.029,0.036,-0.008,-0.013,105.0,106.0,100.0,13.4,1505.3,326.6,-0.7,1.9,2470.385,13.32,0.036,102.5
2020-09-11T01:04:02,42.805,6.029,0.026,-0.02,0.003,106.0,108.0,103.0,13.3,1505.2,327.2,-0.7,1.8,2470.416,13.3,0.032,127.6
2020-09-11T01:07:03,42.805,6.029,0.054,-0.03,-0.001,103.0,106.0,102.0,13.4,1505.3,326.0,-0.7,1.8,2470.402,13.31,0.061,119.1
2020-09-11T01:10:03,42.805,6.029,0.041,-0.021,-0.019,105.0,105.0,102.0,13.4,1505.3,324.5,-0.7,1.8,2470.353,13.31,0.046,117.1
2020-09-11T01:13:03,42.805,6.029,0.031,-0.022,-0.004,104.0,105.0,101.0,13.4,1505.3,325.4,-0.7,1.8,2470.397,13.32,0.038,125.4
2020-09-11T01:16:02,42.805,6.029,0.029,-0.022,-0.015,104.0,106.0,101.0,13.4,1505.3,327.3,-0.7,1.8,2470.353,13.32,0.036,127.2
2020-09-11T01:19:02,42.805,6.029,0.035,-0.025,-0.015,104.0,105.0,101.0,13.4,1505.3,324.6,-0.7,1.8,2470.337,13.32,0.043,125.5
2020-09-11T01:22:02,42.805,6.029,0.028,-0.032,0.0,103.0,106.0,101.0,13.4,1505.3,326.4,-0.7,1.8,2470.356,13.32,0.042,138.8
2020-09-11T01:25:02,42.805,6.029,0.032,-0.028,0.019,102.0,106.0,100.0,13.3,1505.3,327.5,-0.7,1.9,2470.371,13.32,0.042,131.2
2020-09-11T01:28:02,42.805,6.029,0.044,-0.04,0.009,102.0,106.0,101.0,13.3,1505.3,323.2,-0.7,1.9,2470.357,13.32,0.059,132.3
2020-09-11T01:31:03,42.805,6.029,0.055,-0.029,-0.012,102.0,107.0,101.0,13.4,1505.3,325.7,-0.7,1.8,2470.373,13.32,0.062,117.8
2020-09-11T01:34:03,42.805,6.029,0.025,-0.018,-0.022,103.0,105.0,101.0,13.4,1505.3,326.4,-0.7,1.8,2470.387,13.32,0.03,125.8
2020-09-11T01:37:03,42.805,6.029,0.044,-0.017,-0.028,104.0,106.0,102.0,13.4,1505.3,327.0,-0.7,1.9,2470.326,13.32,0.047,111.1
2020-09-11T01:40:02,42.805,6.029,0.045,-0.025,-0.008,103.0,106.0,101.0,13.4,1505.3,324.9,-0.7,1.8,2470.368,13.32,0.051,119.1
2020-09-11T01:43:02,42.805,6.029,0.053,-0.002,-0.018,103.0,104.0,101.0,13.4,1505.3,324.3,-0.8,1.8,2470.387,13.32,0.053,92.2
2020-09-11T01:46:04,42.805,6.029,0.049,-0.043,-0.027,102.0,106.0,101.0,13.4,1505.3,324.2,-0.7,1.8,2470.352,13.32,0.065,131.3
2020-09-11T01:49:03,42.805,6.029,0.056,-0.028,-0.03,102.0,106.0,101.0,13.3,1505.3,326.7,-0.7,1.8,2470.343,13.32,0.062,116.6
2020-09-11T01:52:03,42.805,6.029,0.026,-0.005,0.016,103.0,106.0,101.0,13.3,1505.3,324.5,-0.7,1.8,2470.356,13.32,0.026,100.9
2020-09-11T01:55:02,42.805,6.029,0.054,-0.02,0.031,105.0,108.0,100.0,13.4,1505.3,327.7,-0.7,1.8,2470.31,13.32,0.057,110.3
2020-09-11T01:58:03,42.805,6.029,0.039,-0.026,0.027,105.0,106.0,100.0,13.4,1505.3,327.3,-0.7,1.8,2470.326,13.32,0.046,123.7
2020-09-11T02:04:02,42.805,6.029,0.055,-0.036,0.006,104.0,106.0,101.0,13.3,1505.2,327.2,-0.7,1.8,2470.418,13.3,0.065,123.2
2020-09-11T02:07:03,42.805,6.029,0.028,-0.03,-0.005,103.0,107.0,100.0,13.4,1505.3,324.9,-0.7,1.8,2470.358,13.31,0.041,137.0
2020-09-11T02:10:02,42.805,6.029,0.026,-0.034,-0.027,104.0,106.0,103.0,13.4,1505.3,325.9,-0.7,1.8,2470.369,13.31,0.042,142.6
2020-09-11T02:13:03,42.805,6.029,0.048,-0.027,-0.003,103.0,106.0,101.0,13.4,1505.3,325.0,-0.7,1.8,2470.36,13.32,0.055,119.4
2020-09-11T02:16:03,42.805,6.029,0.015,-0.034,-0.013,104.0,105.0,101.0,13.3,1505.3,327.9,-0.7,1.8,2470.402,13.32,0.037,156.2
2020-09-11T02:19:02,42.805,6.029,0.033,0.0,0.01,104.0,106.0,102.0,13.4,1505.3,323.2,-0.7,1.8,2470.352,13.32,0.033,90.0
2020-09-11T02:22:03,42.805,6.029,0.015,-0.016,0.014,103.0,105.0,101.0,13.4,1505.3,323.3,-0.7,1.8,2470.395,13.32,0.021,136.9
2020-09-11T02:25:03,42.805,6.029,0.039,-0.025,-0.01,103.0,106.0,103.0,13.4,1505.3,323.7,-0.7,1.8,2470.379,13.32,0.046,122.7
2020-09-11T02:28:02,42.805,6.029,0.038,-0.021,-0.002,105.0,106.0,102.0,13.4,1505.3,326.0,-0.7,1.8,2470.348,13.32,0.043,118.9
2020-09-11T02:31:06,42.805,6.029,0.067,-0.025,-0.003,102.0,106.0,101.0,13.4,1505.3,326.5,-0.7,1.8,2470.323,13.32,0.071,110.5
2020-09-11T02:34:02,42.805,6.029,0.046,-0.016,0.0,103.0,106.0,101.0,13.4,1505.3,325.9,-0.7,1.8,2470.342,13.32,0.048,109.2
2020-09-11T02:37:03,42.805,6.029,0.022,-0.02,-0.008,104.0,105.0,101.0,13.4,1505.3,325.6,-0.7,1.8,2470.355,13.32,0.029,132.3
2020-09-11T02:40:02,42.805,6.029,0.03,-0.033,-0.01,103.0,105.0,102.0,13.4,1505.3,324.2,-0.7,1.9,2470.337,13.32,0.044,137.7
2020-09-11T02:43:03,42.805,6.029,0.056,-0.036,0.009,104.0,108.0,101.0,13.3,1505.3,326.4,-0.7,1.8,2470.338,13.32,0.066,122.7
2020-09-11T02:46:03,42.805,6.029,0.043,-0.024,-0.013,103.0,104.0,102.0,13.3,1505.3,328.2,-0.7,1.8,2470.325,13.32,0.049,119.2
2020-09-11T02:49:02,42.805,6.029,0.03,-0.015,0.023,103.0,106.0,102.0,13.3,1505.3,327.1,-0.7,1.8,2470.364,13.32,0.033,116.6
2020-09-11T02:52:02,42.805,6.029,0.006,-0.002,0.009,102.0,106.0,101.0,13.4,1505.3,323.2,-0.7,1.8,2470.364,13.32,0.006,108.4
2020-09-11T02:55:03,42.805,6.029,0.041,-0.031,0.004,104.0,106.0,101.0,13.3,1505.3,324.6,-0.7,1.9,2470.375,13.32,0.051,127.1
2020-09-11T02:58:02,42.805,6.029,0.045,-0.028,-0.004,103.0,105.0,101.0,13.3,1505.3,324.9,-0.7,1.8,2470.354,13.32,0.053,121.9
2020-09-11T03:04:02,42.805,6.029,0.038,-0.044,-0.003,103.0,106.0,101.0,13.4,1505.2,328.2,-0.7,1.8,2470.389,13.3,0.058,139.2
2020-09-11T03:07:02,42.805,6.029,0.045,-0.043,0.01,104.0,105.0,101.0,13.4,1505.3,328.3,-0.7,1.8,2470.341,13.31,0.062,133.7
2020-09-11T03:10:02,42.805,6.029,0.05,-0.021,0.025,102.0,106.0,101.0,13.4,1505.3,327.5,-0.7,1.8,2470.351,13.31,0.054,112.8
2020-09-11T03:13:03,42.805,6.029,0.03,-0.031,0.002,104.0,105.0,101.0,13.4,1505.3,326.7,-0.7,1.8,2470.351,13.32,0.043,135.9
2020-09-11T03:16:03,42.805,6.029,0.045,-0.004,0.013,103.0,107.0,101.0,13.3,1505.3,325.7,-0.7,1.8,2470.313,13.32,0.045,95.1
2020-09-11T03:19:03,42.805,6.029,0.035,-0.006,0.0,103.0,108.0,102.0,13.4,1505.3,324.6,-0.7,1.8,2470.329,13.32,0.035,99.7
2020-09-11T03:22:02,42.805,6.029,0.03,-0.021,0.003,103.0,105.0,101.0,13.4,1505.3,326.7,-0.7,1.9,2470.336,13.32,0.036,125.0
2020-09-11T03:25:03,42.805,6.029,0.036,-0.032,0.032,103.0,105.0,101.0,13.4,1505.3,327.5,-0.7,1.8,2470.348,13.32,0.048,131.6
2020-09-11T03:28:03,42.805,6.029,0.059,-0.025,-0.009,103.0,107.0,101.0,13.4,1505.3,325.7,-0.7,1.8,2470.335,13.32,0.064,113.0
2020-09-11T03:31:03,42.805,6.029,0.023,-0.031,-0.017,102.0,106.0,101.0,13.4,1505.3,328.1,-0.7,1.8,2470.336,13.32,0.038,143.4
2020-09-11T03:34:03,42.805,6.029,0.045,-0.015,0.006,103.0,107.0,102.0,13.4,1505.3,323.3,-0.7,1.8,2470.315,13.32,0.047,108.4
2020-09-11T03:37:02,42.805,6.029,0.018,-0.016,0.002,105.0,107.0,101.0,13.4,1505.3,326.9,-0.7,1.8,2470.329,13.32,0.024,131.6
2020-09-11T03:40:03,42.805,6.029,0.008,-0.018,-0.013,106.0,108.0,102.0,13.4,1505.3,326.4,-0.7,1.8,2470.318,13.32,0.019,156.0
2020-09-11T03:43:02,42.805,6.029,0.027,-0.021,0.002,105.0,108.0,102.0,13.4,1505.3,326.7,-0.7,1.8,2470.308,13.32,0.034,127.9
2020-09-11T03:46:05,42.805,6.029,0.018,-0.02,0.011,104.0,107.0,102.0,13.4,1505.3,324.8,-0.7,1.8,2470.344,13.32,0.026,138.0
2020-09-11T03:49:03,42.805,6.029,0.053,-0.016,0.034,103.0,107.0,101.0,13.4,1505.3,325.1,-0.7,1.8,2470.341,13.32,0.055,106.8
2020-09-11T03:52:03,42.805,6.029,0.038,-0.016,-0.016,104.0,107.0,101.0,13.4,1505.3,327.8,-0.7,1.8,2470.295,13.32,0.041,112.8
2020-09-11T03:55:03,42.805,6.029,0.034,-0.013,0.04,104.0,107.0,101.0,13.4,1505.3,326.1,-0.7,1.8,2470.326,13.32,0.036,110.9
2020-09-11T03:58:03,42.805,6.029,0.03,-0.027,0.003,103.0,107.0,102.0,13.4,1505.3,325.7,-0.7,1.8,2470.355,13.32,0.04,132.0
2020-09-11T04:01:03,42.805,6.029,0.02,-0.021,0.018,103.0,107.0,101.0,13.4,1505.3,326.9,-0.7,1.8,2470.329,13.32,0.028,136.4
2020-09-11T04:04:02,42.805,6.029,0.034,-0.004,0.028,104.0,106.0,100.0,13.4,1505.3,326.9,-0.7,1.8,2470.327,13.32,0.034,96.7
2020-09-11T04:07:02,42.805,6.029,0.041,-0.009,0.014,104.0,107.0,100.0,13.4,1505.3,325.0,-0.7,1.8,2470.327,13.32,0.041,102.4
2020-09-11T04:10:03,42.805,6.029,0.054,-0.022,0.006,103.0,107.0,100.0,13.4,1505.3,327.4,-0.7,1.9,2470.268,13.32,0.058,112.2
2020-09-11T04:13:03,42.805,6.029,0.043,-0.014,0.036,105.0,107.0,100.0,13.4,1505.3,325.3,-0.7,1.8,2470.333,13.32,0.045,108.0
2020-09-11T04:16:03,42.805,6.029,0.011,0.007,0.008,102.0,107.0,101.0,13.4,1505.3,325.2,-0.7,1.8,2470.324,13.32,0.013,57.5
2020-09-11T04:19:03,42.805,6.029,0.028,-0.015,-0.013,102.0,107.0,100.0,13.4,1505.3,327.1,-0.7,1.8,2470.325,13.32,0.031,118.2
2020-09-11T04:22:02,42.805,6.029,0.068,-0.032,0.051,102.0,106.0,101.0,13.4,1505.3,326.0,-0.7,1.8,2470.349,13.32,0.075,115.2
2020-09-11T04:25:02,42.805,6.029,0.046,-0.023,0.001,103.0,106.0,101.0,13.4,1505.3,324.3,-0.7,1.8,2470.341,13.32,0.051,116.6
2020-09-11T04:28:02,42.805,6.029,0.039,-0.005,0.04,103.0,106.0,100.0,13.3,1505.3,327.9,-0.7,1.8,2470.293,13.32,0.039,97.3
2020-09-11T04:31:03,42.805,6.029,0.023,-0.027,-0.01,103.0,109.0,101.0,13.4,1505.3,327.2,-0.7,1.8,2470.301,13.32,0.035,139.6
2020-09-11T04:34:03,42.805,6.029,0.033,-0.026,-0.002,103.0,106.0,100.0,13.4,1505.3,324.3,-0.7,1.8,2470.357,13.32,0.042,128.2
2020-09-11T04:37:02,42.805,6.029,0.043,-0.023,0.027,103.0,106.0,100.0,13.4,1505.3,327.7,-0.7,1.8,2470.339,13.32,0.048,118.1
2020-09-11T04:40:03,42.805,6.029,0.038,-0.032,-0.002,103.0,107.0,100.0,13.4,1505.3,326.6,-0.7,1.9,2470.311,13.32,0.049,130.1
2020-09-11T04:43:03,42.805,6.029,0.028,0.001,0.024,103.0,106.0,100.0,13.3,1505.3,325.3,-0.7,1.8,2470.324,13.32,0.028,88.0
2020-09-11T04:46:03,42.805,6.029,0.031,-0.02,-0.006,103.0,107.0,101.0,13.3,1505.3,327.7,-0.7,1.8,2470.318,13.32,0.036,122.8
2020-09-11T04:49:03,42.805,6.029,0.013,-0.018,-0.001,102.0,106.0,101.0,13.4,1505.3,327.3,-0.7,1.8,2470.308,13.32,0.022,144.2
2020-09-11T04:52:02,42.805,6.029,0.022,-0.034,-0.02,103.0,107.0,100.0,13.4,1505.3,327.2,-0.7,1.8,2470.329,13.32,0.04,147.1
2020-09-11T04:55:04,42.805,6.029,0.03,-0.025,0.014,103.0,107.0,101.0,13.3,1505.3,324.7,-0.7,1.8,2470.306,13.32,0.039,129.8
2020-09-11T04:58:03,42.805,6.029,0.012,-0.005,0.015,103.0,108.0,101.0,13.3,1505.3,324.9,-0.7,1.8,2470.288,13.32,0.013,112.6
2020-09-11T05:04:03,42.805,6.029,0.037,-0.021,0.027,103.0,107.0,102.0,13.4,1505.2,327.7,-0.7,1.8,2470.31,13.3,0.042,119.6
2020-09-11T05:07:02,42.805,6.029,0.018,-0.011,-0.026,103.0,107.0,102.0,13.4,1505.3,327.1,-0.7,1.8,2470.302,13.31,0.021,121.4
2020-09-11T05:10:03,42.805,6.029,0.015,-0.027,-0.012,105.0,106.0,101.0,13.4,1505.3,328.4,-0.7,1.8,2470.318,13.31,0.03,150.9
2020-09-11T05:13:03,42.805,6.029,0.012,-0.02,-0.018,102.0,106.0,102.0,13.4,1505.3,328.4,-0.7,1.8,2470.304,13.32,0.023,149.0
2020-09-11T05:16:04,42.805,6.029,0.015,-0.013,-0.01,103.0,106.0,102.0,13.4,1505.3,324.6,-0.7,1.8,2470.319,13.32,0.019,130.9
2020-09-11T05:19:03,42.805,6.029,0.047,-0.018,0.016,104.0,107.0,102.0,13.3,1505.3,326.6,-0.7,1.8,2470.27,13.32,0.05,111.0
2020-09-11T05:22:03,42.805,6.029,0.038,-0.017,0.023,104.0,108.0,102.0,13.4,1505.3,323.0,-0.7,1.8,2470.336,13.32,0.041,114.1
2020-09-11T05:25:03,42.805,6.029,0.048,-0.006,0.033,104.0,106.0,102.0,13.4,1505.3,327.7,-0.7,1.8,2470.309,13.32,0.048,97.1
2020-09-11T05:28:03,42.805,6.029,0.023,-0.001,-0.001,104.0,108.0,102.0,13.4,1505.3,325.1,-0.7,1.8,2470.297,13.32,0.023,92.5
2020-09-11T05:31:02,42.805,6.029,0.019,0.001,-0.003,104.0,107.0,101.0,13.3,1505.3,326.1,-0.7,1.9,2470.277,13.32,0.019,87.0
2020-09-11T05:34:02,42.805,6.029,0.025,-0.016,0.001,102.0,109.0,101.0,13.4,1505.3,327.6,-0.7,1.8,2470.33,13.32,0.029,122.6
2020-09-11T05:37:02,42.805,6.029,0.047,-0.015,-0.009,104.0,107.0,101.0,13.4,1505.3,327.2,-0.7,1.8,2470.285,13.32,0.049,107.7
2020-09-11T05:40:03,42.805,6.029,0.024,-0.018,0.003,105.0,107.0,101.0,13.3,1505.3,326.5,-0.7,1.8,2470.241,13.32,0.03,126.9
2020-09-11T05:43:03,42.805,6.029,0.032,-0.018,-0.002,103.0,107.0,102.0,13.3,1505.3,324.7,-0.7,1.9,2470.272,13.32,0.036,119.4
2020-09-11T05:46:03,42.805,6.029,0.015,-0.012,0.007,103.0,106.0,102.0,13.4,1505.3,327.0,-0.7,1.8,2470.315,13.32,0.019,128.7
2020-09-11T05:49:03,42.805,6.029,0.028,-0.008,0.019,104.0,108.0,101.0,13.3,1505.3,322.9,-0.7,1.9,2470.273,13.32,0.029,105.9
2020-09-11T05:52:02,42.805,6.029,0.001,-0.002,-0.005,103.0,108.0,102.0,13.3,1505.3,327.8,-0.7,1.8,2470.295,13.32,0.002,153.4
2020-09-11T05:55:03,42.805,6.029,0.024,-0.008,-0.001,103.0,108.0,101.0,13.4,1505.3,322.8,-0.7,1.8,2470.293,13.32,0.025,108.4
2020-09-11T05:58:03,42.805,6.029,0.026,-0.014,-0.007,104.0,107.0,101.0,13.4,1505.3,327.6,-0.7,1.8,2470.273,13.32,0.029,118.3
2020-09-11T06:04:02,42.805,6.029,0.024,0.002,0.0,102.0,109.0,100.0,13.4,1505.2,326.8,-0.7,1.8,2470.349,13.3,0.024,85.2
2020-09-11T06:07:02,42.805,6.029,0.016,-0.011,-0.004,102.0,109.0,101.0,13.4,1505.3,328.1,-0.7,1.9,2470.33,13.31,0.019,124.5
2020-09-11T06:10:03,42.805,6.029,0.031,0.001,0.009,102.0,108.0,101.0,13.4,1505.3,323.0,-0.7,1.8,2470.333,13.31,0.031,88.2
2020-09-11T06:13:02,42.805,6.029,0.012,0.014,0.025,105.0,110.0,102.0,13.3,1505.3,326.9,-0.7,1.8,2470.312,13.32,0.018,40.6
2020-09-11T06:16:02,42.805,6.029,0.021,0.015,-0.005,103.0,109.0,101.0,13.3,1505.3,324.8,-0.7,1.8,2470.261,13.32,0.025,54.5
2020-09-11T06:19:03,42.805,6.029,0.032,0.007,0.009,102.0,110.0,102.0,13.4,1505.3,325.3,-0.7,1.8,2470.295,13.32,0.032,77.7
2020-09-11T06:22:02,42.805,6.029,0.014,0.0,-0.02,104.0,108.0,100.0,13.4,1505.3,324.1,-0.7,1.8,2470.27,13.32,0.014,90.0
2020-09-11T06:25:02,42.805,6.029,0.039,-0.01,-0.001,105.0,110.0,101.0,13.4,1505.3,324.6,-0.7,1.8,2470.302,13.32,0.04,104.4
2020-09-11T06:28:02,42.805,6.029,0.027,-0.02,-0.014,103.0,111.0,101.0,13.4,1505.3,326.4,-0.7,1.8,2470.298,13.32,0.033,126.5
2020-09-11T06:31:02,42.805,6.029,0.016,-0.008,-0.021,103.0,111.0,101.0,13.4,1505.3,327.2,-0.7,1.8,2470.284,13.32,0.017,116.6
2020-09-11T06:34:02,42.805,6.029,-0.004,0.006,0.009,104.0,110.0,101.0,13.4,1505.3,325.6,-0.7,1.8,2470.258,13.32,0.007,326.3
2020-09-11T06:37:02,42.805,6.029,0.012,-0.004,-0.028,104.0,111.0,101.0,13.3,1505.3,326.1,-0.7,1.8,2470.242,13.32,0.012,108.4
2020-09-11T06:40:03,42.805,6.029,0.041,-0.016,-0.003,102.0,109.0,102.0,13.3,1505.3,325.1,-0.7,1.8,2470.271,13.32,0.044,111.3
2020-09-11T06:43:03,42.805,6.029,0.006,-0.015,-0.011,103.0,111.0,102.0,13.4,1505.3,325.9,-0.7,1.8,2470.3,13.32,0.016,158.2
2020-09-11T06:46:03,42.805,6.029,0.038,-0.017,0.004,104.0,113.0,100.0,13.4,1505.3,327.2,-0.7,1.8,2470.295,13.32,0.041,114.1
2020-09-11T06:49:03,42.805,6.029,0.008,0.0,-0.01,103.0,113.0,100.0,13.4,1505.3,326.2,-0.7,1.8,2470.304,13.32,0.008,90.0
2020-09-11T06:52:02,42.805,6.029,0.015,0.001,0.005,103.0,112.0,102.0,13.4,1505.3,323.3,-0.7,1.9,2470.265,13.32,0.015,86.2
2020-09-11T06:55:03,42.805,6.029,0.031,-0.008,0.002,103.0,111.0,100.0,13.3,1505.3,325.9,-0.7,1.9,2470.285,13.32,0.032,104.5
2020-09-11T06:58:02,42.805,6.029,0.019,-0.018,-0.025,103.0,111.0,101.0,13.3,1505.3,326.6,-0.7,1.8,2470.259,13.32,0.026,133.5
2020-09-11T07:04:02,42.805,6.029,0.038,0.003,0.013,103.0,114.0,101.0,13.4,1505.2,325.4,-0.7,1.8,2470.348,13.3,0.038,85.5
2020-09-11T07:07:02,42.805,6.029,0.035,-0.023,-0.005,104.0,113.0,101.0,13.4,1505.3,326.9,-0.7,1.8,2470.3,13.31,0.041,123.3
2020-09-11T07:10:02,42.805,6.029,0.012,0.003,-0.018,104.0,115.0,100.0,13.4,1505.3,325.0,-0.7,1.8,2470.3,13.31,0.012,76.0
2020-09-11T07:13:02,42.805,6.029,0.019,-0.005,-0.01,103.0,114.0,102.0,13.4,1505.3,324.0,-0.7,1.8,2470.31,13.32,0.019,104.7
2020-09-11T07:16:03,42.805,6.029,0.005,0.011,-0.039,103.0,114.0,101.0,13.4,1505.3,323.8,-0.7,1.8,2470.26,13.32,0.012,24.4
2020-09-11T07:19:03,42.805,6.029,0.04,-0.024,-0.025,103.0,112.0,102.0,13.4,1505.3,326.4,-0.7,1.8,2470.313,13.32,0.046,121.0
2020-09-11T07:22:02,42.805,6.029,0.057,-0.02,0.01,104.0,111.0,101.0,13.3,1505.3,323.9,-0.7,1.8,2470.251,13.32,0.06,109.3
2020-09-11T07:25:03,42.805,6.029,0.044,-0.007,0.019,104.0,112.0,101.0,13.4,1505.3,326.3,-0.7,1.8,2470.288,13.32,0.044,99.0
2020-09-11T07:28:03,42.805,6.029,0.039,-0.011,-0.004,105.0,114.0,101.0,13.4,1505.3,325.6,-0.7,1.8,2470.306,13.32,0.04,105.7
2020-09-11T07:31:05,42.805,6.029,0.022,0.001,-0.011,103.0,117.0,102.0,13.3,1505.3,323.8,-0.7,1.8,2470.312,13.32,0.022,87.4
2020-09-11T07:34:03,42.805,6.029,0.033,-0.02,0.012,104.0,115.0,102.0,13.3,1505.3,328.0,-0.7,1.8,2470.313,13.32,0.038,121.2
2020-09-11T07:37:02,42.805,6.029,0.028,-0.005,-0.007,105.0,113.0,101.0,13.3,1505.3,324.5,-0.7,1.8,2470.268,13.32,0.028,100.1
2020-09-11T07:40:03,42.805,6.029,0.035,-0.007,0.027,105.0,115.0,101.0,13.4,1505.3,326.5,-0.7,1.8,2470.295,13.32,0.035,101.3
2020-09-11T07:43:03,42.805,6.029,0.017,-0.008,0.008,104.0,112.0,101.0,13.4,1505.3,325.6,-0.7,1.8,2470.267,13.32,0.018,115.2
2020-09-11T07:46:03,42.805,6.029,0.009,0.003,-0.013,104.0,113.0,102.0,13.4,1505.3,322.8,-0.7,1.8,2470.241,13.32,0.009,71.6
2020-09-11T07:49:03,42.805,6.029,0.042,0.006,0.018,103.0,113.0,101.0,13.3,1505.3,322.8,-0.7,1.8,2470.276,13.32,0.042,81.9
2020-09-11T07:52:02,42.805,6.029,0.021,-0.012,-0.002,103.0,111.0,103.0,13.4,1505.3,325.0,-0.7,1.8,2470.282,13.32,0.024,119.7
2020-09-11T07:55:03,42.805,6.029,0.035,-0.01,-0.025,105.0,113.0,102.0,13.4,1505.3,324.7,-0.7,1.9,2470.275,13.32,0.036,105.9
2020-09-11T07:58:03,42.805,6.029,0.023,0.0,-0.006,105.0,113.0,102.0,13.4,1505.3,324.7,-0.7,1.8,2470.287,13.32,0.023,90.0
2020-09-11T08:04:02,42.805,6.029,0.038,-0.009,-0.001,105.0,115.0,102.0,13.3,1505.2,324.7,-0.7,1.8,2470.319,13.3,0.039,103.3
2020-09-11T08:07:02,42.805,6.029,0.031,0.0,-0.015,104.0,114.0,102.0,13.4,1505.3,325.3,-0.7,1.8,2470.328,13.31,0.03,90.0
2020-09-11T08:10:04,42.805,6.029,0.044,0.004,-0.012,104.0,111.0,102.0,13.4,1505.3,325.4,-0.7,1.8,2470.3,13.31,0.044,84.8
2020-09-11T08:13:03,42.805,6.029,0.03,0.014,-0.036,104.0,115.0,101.0,13.3,1505.3,323.3,-0.7,1.8,2470.264,13.32,0.033,65.0
2020-09-11T08:16:03,42.805,6.029,0.007,0.01,0.01,104.0,115.0,101.0,13.4,1505.3,326.6,-0.7,1.8,2470.282,13.32,0.012,35.0
2020-09-11T08:19:03,42.805,6.029,0.026,0.012,-0.005,104.0,112.0,101.0,13.3,1505.3,324.0,-0.7,1.8,2470.304,13.32,0.028,65.2
2020-09-11T08:22:03,42.805,6.029,0.02,-0.004,-0.036,104.0,113.0,103.0,13.4,1505.3,326.1,-0.7,1.8,2470.305,13.32,0.02,101.3
2020-09-11T08:25:03,42.805,6.029,0.035,0.0,0.019,103.0,114.0,101.0,13.4,1505.3,325.4,-0.7,1.9,2470.329,13.32,0.035,90.0
2020-09-11T08:28:02,42.805,6.029,0.013,-0.005,0.0,104.0,115.0,102.0,13.4,1505.3,324.7,-0.7,1.8,2470.278,13.32,0.013,111.0
2020-09-11T08:31:02,42.805,6.029,0.045,-0.018,-0.005,104.0,112.0,103.0,13.3,1505.3,328.2,-0.7,1.8,2470.268,13.32,0.048,111.8
2020-09-11T08:34:03,42.805,6.029,0.034,0.005,-0.04,104.0,115.0,102.0,13.4,1505.3,324.5,-0.7,1.8,2470.307,13.32,0.034,81.6
2020-09-11T08:37:02,42.805,6.029,0.007,-0.013,-0.031,104.0,115.0,102.0,13.3,1505.3,326.7,-0.7,1.8,2470.303,13.32,0.014,151.7
2020-09-11T08:40:04,42.805,6.029,0.041,-0.004,0.008,103.0,114.0,102.0,13.4,1505.3,324.2,-0.7,1.8,2470.297,13.32,0.041,95.6
2020-09-11T08:43:03,42.805,6.029,0.025,0.004,-0.028,106.0,115.0,101.0,13.3,1505.3,325.1,-0.7,1.8,2470.297,13.32,0.025,80.9
2020-09-11T08:46:03,42.805,6.029,0.033,0.001,-0.017,104.0,113.0,102.0,13.4,1505.3,327.5,-0.7,1.8,2470.294,13.32,0.033,88.3
2020-09-11T08:49:03,42.805,6.029,0.009,-0.01,-0.046,104.0,118.0,102.0,13.4,1505.3,326.0,-0.7,1.8,2470.322,13.32,0.013,138.0
2020-09-11T08:52:02,42.805,6.029,0.059,-0.008,-0.02,104.0,113.0,100.0,13.4,1505.3,325.5,-0.7,1.8,2470.341,13.32,0.059,97.7
2020-09-11T08:55:04,42.805,6.029,0.031,-0.003,-0.03,104.0,115.0,101.0,13.4,1505.3,326.2,-0.7,1.8,2470.305,13.32,0.031,95.5
2020-09-11T08:58:03,42.805,6.029,0.041,-0.015,-0.031,104.0,115.0,102.0,13.3,1505.3,326.0,-0.7,1.8,2470.329,13.32,0.043,110.1
2020-09-11T09:04:02,42.805,6.029,0.035,-0.004,0.002,104.0,113.0,102.0,13.3,1505.2,325.8,-0.8,1.9,2470.341,13.3,0.035,96.5
2020-09-11T09:07:02,42.805,6.029,0.031,-0.004,0.0,103.0,113.0,102.0,13.4,1505.3,323.0,-0.7,1.8,2470.297,13.31,0.031,97.3
2020-09-11T09:10:03,42.805,6.029,0.01,-0.009,-0.022,105.0,117.0,102.0,13.4,1505.3,326.3,-0.7,1.8,2470.293,13.31,0.013,132.0
2020-09-11T09:13:03,42.805,6.029,0.039,-0.021,-0.019,104.0,113.0,102.0,13.4,1505.3,324.6,-0.7,1.8,2470.313,13.32,0.044,118.3
2020-09-11T09:16:03,42.805,6.029,0.027,0.0,0.0,105.0,110.0,101.0,13.3,1505.3,325.9,-0.7,1.8,2470.31,13.32,0.026,90.0
2020-09-11T09:19:02,42.805,6.029,0.032,-0.022,-0.014,105.0,111.0,102.0,13.3,1505.3,325.5,-0.7,1.8,2470.334,13.32,0.038,124.5
2020-09-11T09:22:02,42.805,6.029,0.009,-0.007,0.006,106.0,113.0,102.0,13.4,1505.3,326.9,-0.7,1.8,2470.309,13.32,0.011,127.9
2020-09-11T09:25:02,42.805,6.029,0.018,-0.006,-0.016,105.0,113.0,102.0,13.4,1505.3,324.8,-0.7,1.8,2470.319,13.32,0.018,108.4
2020-09-11T09:28:03,42.805,6.029,0.035,0.0,-0.011,104.0,115.0,101.0,13.4,1505.3,326.4,-0.7,1.8,2470.358,13.32,0.035,90.0
2020-09-11T09:31:03,42.805,6.029,0.019,-0.004,-0.02,105.0,115.0,102.0,13.4,1505.3,326.3,-0.7,1.8,2470.292,13.32,0.019,101.9
2020-09-11T09:34:02,42.805,6.029,0.03,0.0,0.012,106.0,112.0,103.0,13.4,1505.3,324.3,-0.7,1.8,2470.325,13.32,0.03,90.0
2020-09-11T09:37:03,42.805,6.029,0.04,-0.015,-0.004,104.0,115.0,102.0,13.4,1505.3,324.9,-0.7,1.8,2470.321,13.32,0.042,110.6
2020-09-11T09:40:03,42.805,6.029,0.059,0.0,0.025,105.0,113.0,102.0,13.4,1505.3,325.1,-0.7,1.8,2470.307,13.32,0.058,90.0
2020-09-11T09:43:03,42.805,6.029,0.025,0.0,-0.023,105.0,112.0,103.0,13.3,1505.3,324.9,-0.7,1.8,2470.31,13.32,0.025,90.0
2020-09-11T09:46:02,42.805,6.029,0.021,0.008,-0.011,103.0,112.0,102.0,13.3,1505.3,328.0,-0.7,1.8,2470.328,13.32,0.022,69.1
2020-09-11T09:49:03,42.805,6.029,0.038,0.007,-0.013,106.0,112.0,102.0,13.3,1505.3,323.4,-0.7,1.8,2470.338,13.32,0.038,79.6
2020-09-11T09:52:02,42.805,6.029,0.037,-0.001,0.004,105.0,114.0,102.0,13.3,1505.3,323.3,-0.7,1.9,2470.311,13.32,0.037,91.5
2020-09-11T09:55:03,42.805,6.029,0.028,-0.026,-0.011,104.0,112.0,102.0,13.4,1505.3,326.3,-0.7,1.8,2470.321,13.32,0.038,132.9